Regional Weather Roundup
Issued by NWS

Home | Current Version | Previous Version | Graphics & Text | Print | Product List | Glossary On
Versions: 1 2 3 4 5 6 7 8 9 10 11 12 13 14 15 16 17 18 19 20 21 22 23 24 25 26 27 28 29 30 31 32 33 34 35 36 37 38 39 40 41 42 43 44 45 46 47 48 49 50
316
ASUS43 KDMX 280808
RWRIA

WEATHER ROUNDUP FOR IOWA
NATIONAL WEATHER SERVICE DES MOINES IA
300 AM CDT WED SEP 28 2016

NOTE: "FAIR" INDICATES FEW OR NO CLOUDS BELOW 12,000 FEET WITH NO
SIGNIFICANT WEATHER AND/OR OBSTRUCTIONS TO VISIBILITY.

* - THESE STATIONS ARE NOT NWS STATIONS...THUS NOT UNDER NWS
QUALITY CONTROL.  THEY ALSO DO NOT REPORT WEATHER SUCH
AS PRECIPITATION OR FOG.

IAZ001>003-012>014-020>022-031>034-043>046-280900-
   NORTHWEST IOWA

CITY           SKY/WX    TMP DP  RH WIND       PRES   REMARKS
CARROLL *      CLEAR     50  43  76 N8        29.95R
CHEROKEE *     CLEAR     46  43  89 CALM      29.98R
DENISON *      CLEAR     48  41  76 NE5       29.94R
LE MARS *      PTCLDY    45  41  87 CALM      30.00R
ORANGE CITY *  CLEAR     48  43  81 NE5       29.99R
SHELDON *      CLOUDY    45  45 100 N6        29.98R
SIOUX CITY     PTCLDY    50  40  68 N8        29.99R
SPENCER        CLOUDY    51  44  77 N10       29.98R
STORM LAKE *   CLEAR     50  45  81 N9G17     29.97R
$$

IAZ055>058-069>071-079>083-090>094-280900-
   SOUTHWEST IOWA

CITY           SKY/WX    TMP DP  RH WIND       PRES   REMARKS
ATLANTIC *     CLEAR     50  43  76 N5        29.93R
AUDUBON *      CLEAR     48  43  81 N7        29.95R
CLARINDA *       N/A     54  48  82 MISG      29.92R
COUNCIL BLFS * CLEAR     54  46  76 N6        29.94R
CRESTON *      CLEAR     54  45  71 N9        29.92R
HARLAN  *      CLEAR     50  43  76 N7        29.97R
LAMONI         CLEAR     55  45  68 N7        29.88R
RED OAK *      CLEAR     52  46  82 N6        29.92R
SHENANDOAH *   CLEAR     54  48  82 NE3       29.92R
$$

IAZ047>049-059>061-072>074-084-280900-
   CENTRAL IOWA

CITY           SKY/WX    TMP DP  RH WIND       PRES   REMARKS
AMES           PTCLDY    52  46  80 N10       29.91R
ANKENY *         N/A    N/A N/A N/A MISG        N/A
BOONE *        PTCLDY    50  43  76 N10       29.91R
CHARITON *       N/A     55  46  71 N7        29.88R
DES MOINES     CLOUDY    58  42  55 N9        29.90R
GRINNELL*      CLOUDY    53  43  70 N10       29.89R
KNOXVILLE *    CLOUDY    57  39  51 N8        29.86R
MARSHALLTOWN   MOCLDY    51  45  79 N12       29.90R
NEWTON *       CLOUDY    54  43  66 N16       29.89R
PELLA *        MOCLDY    55  42  61 N3        29.89R
PERRY *        CLOUDY    53  43  67 N7        29.93R
$$

IAZ004>006-015-016-023>025-035-036-280900-
   NORTH CENTRAL IOWA

CITY           SKY/WX    TMP DP  RH WIND       PRES   REMARKS
ALGONA *       CLOUDY    50  43  76 N9        29.96R
CLARION *      CLOUDY    52  43  71 N10G18    29.94R
ESTHERVILLE    CLOUDY    48  44  86 N9        29.98R
FORT DODGE *   PTCLDY    50  39  66 N6        29.96R
MASON CITY     CLOUDY    49  43  80 N12G20    29.94R
FOREST CITY *  CLOUDY    48  43  81 N12       29.94R
WEBSTER CITY * CLOUDY    52  46  82 N8        29.92R
IOWA FALLS *   MOCLDY    50  44  78 N7        29.93R
$$

IAZ007>011-017>019-026>030-037>042-050>054-066-280900-
   NORTHEAST IOWA

CITY           SKY/WX    TMP DP  RH WIND       PRES   REMARKS
CEDAR RAPIDS   CLOUDY    53  45  74 N13       29.85R
CHARLES CITY * CLOUDY    50  45  81 N9        29.91R
CLINTON *      CLOUDY    51  46  83 N8        29.83
DECORAH *      CLOUDY    48  46  93 N9        29.87R
DUBUQUE        CLOUDY    49  45  86 N8        29.84R
MONTICELLO *   CLOUDY    50  45  81 NW8       29.85R
OELWEIN *      CLOUDY    48  45  87 NW9       29.89R
WATERLOO       CLOUDY    50  43  77 N8        29.89R
$$

IAZ064-065-067-068-078-280900-
   EAST CENTRAL IOWA

CITY           SKY/WX    TMP DP  RH WIND       PRES   REMARKS
DAVENPORT      CLOUDY    53  46  77 N8        29.83R
IOWA CITY      CLOUDY    56  45  66 N10       29.85R
MT. PLEASANT * CLOUDY    58  43  56 N6        29.82R
MUSCATINE *    CLOUDY    55  46  71 N6        29.82R
QUAD CITIES    CLOUDY    56  47  71 VRB3      29.81R
$$

IAZ062-063-075>077-085>089-095>099-280900-
   SOUTHEAST IOWA

CITY           SKY/WX    TMP DP  RH WIND       PRES   REMARKS
BURLINGTON     CLOUDY    58  42  55 N14       29.80R
FAIRFIELD *    CLOUDY    57  41  54 N8        29.83R
FORT MADISON * CLOUDY    57  43  58 N7        29.81S
KEOKUK *       MOCLDY    59  46  63 NW5       29.80R
OSKALOOSA *    CLOUDY    54  41  62 N6        29.86R
OTTUMWA        CLOUDY   N/A N/A N/A N8        29.85R
WASHINGTON *     N/A    N/A N/A N/A MISG        N/A
$$

ABBREVIATIONS USED IN REMARKS
   TC - TEMPERATURES IN CELSIUS
  WCI - WIND CHILL INDEX
   HX - HEAT INDEX
  VSB - VISIBILITY
$$





USA.gov is the U.S. government's official web portal to all federal, state and local government web resources and services.